#timestamp,LO_Frequency,Hit,StdDev 
1513216815.3,286047005.8,N
1513216835.2,286047005.5,N
1513216855.9,286047006.0,N
1513216875.7,286047001.9,N
1513216895.6,286047004.9,N
1513216915.4,286047006.8,N
1513216935.2,286047007.4,N
1513216955.1,286047003.3,N
1513216956.0,286047003.3,N
1513216975.8,286047004.2,N
1513216995.7,286047001.3,N
1513217015.5,286047002.9,N
1513217035.3,286047005.1,N
1513217055.2,286047005.8,N
1513217075.0,286047005.7,N
1513217075.9,286047005.7,N
1513217095.8,286047007.5,N
1513217115.6,286047005.2,N
1513217135.4,286047005.9,N
1513217155.3,286047002.1,N
1513217175.1,286046998.1,N
1513217195.8,286046998.1,N
1513217215.7,286047000.8,N
1513217235.5,286047002.1,N
1513217255.4,286047003.7,N
1513217275.2,286047003.0,N
1513217295.0,286047004.6,N
1513217295.9,286047004.6,N
1513217315.8,286047005.8,N
1513217335.6,286047005.2,N
1513217355.5,286047005.1,N
1513217375.3,286047007.6,Y
1513217395.1,286047003.9,P
1513217415.9,286047001.8,P
1513217435.7,286047002.1,N
1513217455.5,286047000.2,N
1513217475.4,286047000.4,N
1513217495.2,286047000.2,N
1513217515.1,286047002.2,N
1513217516.0,286047002.2,N
1513217535.8,286047000.3,N
1513217555.6,286046998.4,N
1513217575.5,286046999.3,N
1513217595.3,286046997.2,N
1513217615.2,286046998.2,N
1513217635.9,286046998.5,N
1513217655.7,286047000.8,N
1513217675.6,286047001.1,N
1513217695.4,286046999.3,N
1513217715.2,286046999.2,N
1513217735.1,286046996.5,N
1513217736.0,286046996.5,N
1513217755.8,286046999.4,N
1513217775.7,286046997.7,N
1513217795.5,286046996.0,N
1513217815.3,286046997.7,N
1513217835.2,286046996.2,N
1513217855.0,286046996.3,N
1513217855.9,286046996.3,N
1513217875.8,286046993.8,N
1513217895.6,286046995.8,N
1513217915.4,286046994.9,N
1513217935.3,286046995.8,N
1513217955.1,286046993.6,N
1513217975.8,286046998.0,N
1513217995.7,286046997.6,N
1513218015.5,286046997.9,N
1513218035.4,286046997.8,N
1513218055.2,286046997.7,N
1513218075.0,286046997.4,N
1513218075.9,286046997.4,N
1513218095.8,286046998.5,N
1513218115.6,286046996.9,N
1513218135.5,286046998.1,N
1513218155.3,286046995.5,N
1513218175.1,286046997.9,N
1513218195.9,286046994.6,Y
1513218215.7,286046994.5,P
1513218235.6,286046990.6,P
1513218255.4,286046991.7,P
1513218275.2,286046995.3,N
1513218295.1,286046998.3,N
1513218296.0,286046998.3,N
1513218315.8,286047000.4,N
1513218335.6,286047001.3,N
1513218355.5,286047001.5,N
1513218375.3,286047002.3,N
1513218395.2,286047000.6,N
1513218415.9,286046999.7,N
1513218435.7,286047002.1,N
1513218455.6,286047000.1,N
1513218475.4,286047002.2,N
1513218495.2,286047004.4,N
1513218515.1,286047003.5,N
1513218516.0,286047003.5,N
1513218535.8,286047001.3,N
1513218555.7,286047004.2,N
1513218575.5,286047003.1,N
1513218595.3,286047001.3,N
1513218615.2,286047002.7,N
1513218635.0,286046997.0,N
1513218635.9,286046997.0,N
1513218655.8,286047000.8,N
1513218675.6,286046999.9,N
1513218695.4,286047001.8,N
1513218715.3,286046998.5,N
1513218735.1,286046998.6,N
1513218755.8,286047002.3,N
1513218775.7,286047000.0,N
1513218795.5,286047000.1,N
1513218815.4,286047002.2,N
1513218835.2,286046998.1,N
1513218855.0,286046999.0,N
1513218855.9,286046999.0,N
1513218875.8,286047000.5,N
1513218895.6,286047001.8,N
1513218915.4,286047005.4,N
1513218935.3,286047005.0,N
1513218955.1,286047004.8,N
1513218975.9,286047005.3,N
1513218995.7,286047005.0,N
1513219015.5,286047004.9,N
1513219035.4,286047007.1,N
1513219055.2,286047005.7,N
1513219075.1,286047005.6,N
1513219076.0,286047005.6,N
1513219095.8,286046999.7,N
1513219115.6,286047000.3,N
1513219135.5,286047001.2,N
1513219155.3,286046996.6,N
1513219175.1,286046997.0,N
1513219195.9,286046999.7,N
1513219215.7,286047002.7,N
1513219235.6,286047001.5,N
1513219255.4,286047001.8,N
1513219275.2,286047001.6,N
1513219295.1,286047003.6,N
1513219296.0,286047003.6,N
1513219315.8,286047005.2,N
1513219335.7,286047005.1,N
1513219355.5,286047003.1,N
1513219375.3,286047005.5,N
1513219395.2,286047005.0,N
1513219415.0,286047005.6,N
1513219415.9,286047005.6,N
1513219435.8,286047005.0,N
1513219455.6,286047005.7,N
1513219475.4,286047005.9,N
1513219495.3,286047003.7,N
1513219515.1,286047000.8,N
1513219535.9,286047000.6,N
1513219555.7,286047001.3,N
1513219575.5,286047003.0,N
1513219595.4,286047007.2,N
1513219615.2,286047005.4,N
1513219635.0,286047006.0,N
1513219636.0,286047006.0,N
1513219655.8,286047003.2,N
1513219675.6,286047004.3,N
1513219695.5,286047001.3,N
1513219715.3,286047004.1,N
1513219735.1,286047001.3,N
1513219755.9,286047004.4,N
1513219775.7,286047005.9,Y
1513219795.6,286046999.6,P
1513219815.4,286046999.2,N
1513219835.2,286047000.3,N
1513219855.1,286046998.1,N
1513219856.0,286046998.1,N
1513219875.8,286046998.8,N
1513219895.7,286046998.1,N
1513219915.5,286047002.6,N
1513219935.3,286047002.2,N
1513219955.2,286047003.0,N
1513219975.0,286047002.7,N
1513219975.9,286047002.7,N
1513219995.7,286046996.8,N
1513220015.6,286046994.9,N
1513220035.4,286046997.2,N
1513220055.3,286046998.4,N
1513220075.1,286046999.5,N
1513220076.0,286046999.5,N
1513220095.8,286046996.6,N
1513220115.7,286047000.4,N
1513220135.5,286046998.2,N
1513220155.3,286046996.9,N
1513220175.2,286046997.3,N
1513220195.0,286046999.4,N
1513220195.9,286046999.4,N
1513220215.8,286046997.7,N
1513220235.6,286046995.5,N
1513220255.4,286046996.9,N
1513220275.3,286046995.5,N
1513220295.1,286046996.0,N
1513220315.9,286046992.3,Y
1513220335.7,286046995.6,P
1513220355.5,286046996.5,N
1513220375.4,286047001.9,N
1513220395.2,286047004.2,N
